This is the latest recevied weather packets stored in our database for station/object KA8DUX-2. If no packets are shown the sender has not sent any weather packets the latest 10 day(s).
| Time | Temp. | Humidity | Pressure | Rain* | Wind** | Luminosity | Snow |
|---|---|---|---|---|---|---|---|
| 1778197525 | 11.11° C | 49% | 1009.5 hPa | 0 mm | - | 46 W/m² | - |
| 1778197222 | 11.11° C | 50% | 1009.2 hPa | 0 mm | - | 38 W/m² | - |
| 1778196919 | 11.67° C | 45% | 1009.3 hPa | 0 mm | - | 40 W/m² | - |
| 1778196618 | 11.67° C | 47% | 1009.2 hPa | 0 mm | - | 36 W/m² | - |
| 1778196313 | 11.67° C | 49% | 1009.2 hPa | 0 mm | - | 51 W/m² | - |
| 1778196011 | 11.67° C | 47% | 1009.5 hPa | 0 mm | - | 69 W/m² | - |
| 1778195707 | 11.67° C | 47% | 1009.6 hPa | 0 mm | - | 78 W/m² | - |
| 1778195404 | 12.22° C | 47% | 1009.5 hPa | 0 mm | - | 86 W/m² | - |
| 1778195101 | 12.22° C | 46% | 1009.2 hPa | 0 mm | - | 101 W/m² | - |
| 1778194796 | 12.22° C | 48% | 1009.6 hPa | 0 mm | - | 96 W/m² | - |
| 1778194493 | 11.67° C | 46% | 1009.9 hPa | 0 mm | - | 88 W/m² | - |
| 1778194189 | 11.67° C | 47% | 1009.9 hPa | 0 mm | - | 101 W/m² | - |
| 1778193885 | 12.22° C | 50% | 1009.9 hPa | 0 mm | - | 95 W/m² | - |
| 1778193582 | 12.22° C | 44% | 1009.9 hPa | 0 mm | - | 96 W/m² | - |
| 1778193278 | 12.22° C | 44% | 1009.7 hPa | 0 mm | - | 106 W/m² | - |
| 1778192975 | 12.22° C | 44% | 1009.8 hPa | 0 mm | - | 83 W/m² | - |
| 1778192672 | 12.22° C | 46% | 1009.9 hPa | 0 mm | - | 83 W/m² | - |
| 1778192368 | 12.22° C | 44% | 1009.9 hPa | 0 mm | - | 95 W/m² | - |
| 1778192065 | 12.22° C | 45% | 1009.9 hPa | 0 mm | - | 65 W/m² | - |
| 1778191761 | 12.22° C | 46% | 1009.9 hPa | 0 mm | - | 83 W/m² | - |
| 1778191459 | 12.78° C | 44% | 1009.9 hPa | 0 mm | - | 115 W/m² | - |
| 1778191156 | 12.78° C | 43% | 1009.9 hPa | 0 mm | - | 145 W/m² | - |
| 1778190852 | 13.33° C | 42% | 1009.8 hPa | 0 mm | - | 125 W/m² | - |
| 1778190549 | 13.33° C | 41% | 1010 hPa | 0 mm | - | 288 W/m² | - |
| 1778190247 | 13.33° C | 41% | 1010 hPa | 0 mm | - | 163 W/m² | - |
* Rain latest hour (hover to see other rain measurements)
** Current wind speed in m/s (hover to see current wind gust speed)